[[{"header":{"parameterUnit":"m.s-1","parameterCategory":2,"la1":30.2991,"la2":30.254,"lo1":-89.0895,"lo2":-89.0444,"dy":0.0017,"dx":0.0017,"nx":28,"ny":28,"refTime":"2023-07-22T21:00:00:Z","depth":"0","parameterNumber":2,"parameterNumberName":"U-component_of_CURRENTS"},"data":[0,0,0,0,0,0,0,0,0,0,0,0,0,0,0,0,0,0,0,0,0,0,0,0,0,0,0,0,0,0,0,0,0,0,0,0,0,0,0,0,0,0,0,0,0,0,0,0,0,0,0,0,0,0,0,0,0,0,-0.0528,-0.0528,0,-0.049,-0.0489,-0.0488,-0.0473,-0.0475,-0.0476,-0.0477,-0.055,-0.0551,-0.0552,0,0,0,0,0,0,0,0,0,0,0,0,0,-0.0564,-0.0562,-0.0528,-0.0528,-0.0529,-0.049,-0.0489,-0.0487,-0.0473,-0.0475,-0.0476,-0.0477,-0.055,-0.0551,-0.0552,0,0,0,0,0,0,0,0,0,0,0,0,0,-0.0529,-0.0562,-0.0527,-0.0525,-0.0525,-0.0491,-0.0489,-0.0487,-0.0473,-0.0475,-0.0476,-0.0478,-0.055,-0.0551,-0.0552,-0.0527,0,0,-0.0557,-0.0557,0,0,0,0,0,0,0,0,-0.0531,-0.0526,-0.0525,-0.0525,-0.0526,-0.0498,-0.0529,-0.051,-0.0473,-0.0481,-0.0477,-0.0479,-0.0549,-0.0551,-0.0522,-0.053,-0.0534,-0.0557,-0.0558,-0.0558,-0.0558,0,0,0,0,0,0,0,-0.0533,-0.0528,-0.0502,-0.0526,-0.0526,-0.0519,-0.0515,-0.0524,-0.05,-0.0481,-0.0482,-0.0495,-0.0549,-0.0521,-0.0525,-0.0535,-0.0557,-0.0558,-0.0559,-0.0559,-0.0589,-0.0589,0,0,0,0,0,0,-0.0559,-0.053,-0.0503,-0.0502,-0.0545,-0.0518,-0.0513,-0.0496,-0.0497,-0.0501,-0.0494,-0.0495,-0.0518,-0.0523,-0.0528,-0.0545,-0.0558,-0.0559,-0.056,-0.0589,-0.0589,-0.0589,0,0,0,0,0,0,-0.0559,-0.0556,-0.0505,-0.0526,-0.052,-0.0517,-0.0497,-0.0495,-0.0479,-0.0508,-0.0512,-0.0485,-0.0519,-0.0526,-0.0562,-0.0547,-0.056,-0.0561,-0.0589,-0.0589,-0.0589,-0.0551,0,0,0,0,0,0,-0.056,-0.0555,-0.0523,-0.0526,-0.0521,-0.0507,-0.0497,-0.0493,-0.049,-0.049,-0.0502,-0.0509,-0.0521,-0.056,-0.0563,-0.0549,-0.0562,-0.0589,-0.0589,-0.0589,-0.0552,-0.0549,-0.0547,0,0,0,0,0,-0.0561,-0.0519,-0.0521,-0.0518,-0.0485,-0.0509,-0.0504,-0.05,-0.0488,-0.0488,-0.0501,-0.0509,-0.0561,-0.0561,-0.0565,-0.0551,-0.0589,-0.0589,-0.0589,-0.0553,-0.055,-0.0547,0,0,0,0,0,0,-0.0496,-0.0515,-0.0517,-0.0475,-0.0506,-0.0512,-0.05,-0.05,-0.0498,-0.0495,-0.0515,-0.0524,-0.0541,-0.0558,-0.0557,-0.056,-0.0573,-0.0574,-0.0545,-0.0542,-0.0539,-0.0549,-0.0563,0,0,0,0,0,-0.0474,-0.0465,-0.0491,-0.0465,-0.0479,-0.0487,-0.0484,-0.0491,-0.0506,-0.0504,-0.0512,-0.0524,-0.0536,-0.0554,-0.0562,-0.0572,-0.058,-0.0565,-0.0562,-0.056,-0.0571,-0.057,-0.0568,-0.0588,-0.0588,-0.0588,0,0,-0.0446,-0.0455,-0.0448,-0.0455,-0.0467,-0.0486,-0.0487,-0.0496,-0.0507,-0.0515,-0.0514,-0.0513,-0.0537,-0.0542,-0.0551,-0.0562,-0.0556,-0.056,-0.0558,-0.0571,-0.0569,-0.0567,-0.0565,-0.0588,-0.0588,-0.0588,0,0,-0.04,-0.0397,-0.0377,-0.0418,-0.0452,-0.047,-0.0482,-0.0493,-0.0494,-0.0494,-0.0504,-0.0507,-0.0511,-0.0532,-0.0542,-0.0537,-0.0537,-0.0529,-0.053,-0.0527,-0.0526,-0.0524,-0.0517,-0.0515,-0.0534,-0.0534,-0.0534,0,-0.0361,-0.0346,-0.0379,-0.0393,-0.0411,-0.0472,-0.0467,-0.0495,-0.0512,-0.0516,-0.0497,-0.0486,-0.0504,-0.0531,-0.0526,-0.053,-0.0526,-0.0536,-0.0523,-0.0522,-0.0521,-0.0515,-0.0513,-0.0532,-0.0532,-0.0532,-0.0532,0,-0.0321,-0.0322,-0.0329,-0.0369,-0.0383,-0.0411,-0.0466,-0.0496,-0.0489,-0.0495,-0.0492,-0.0491,-0.049,-0.0486,-0.0503,-0.051,-0.0507,-0.0512,-0.0527,-0.0517,-0.051,-0.051,-0.0529,-0.053,-0.053,-0.0531,0,0,-0.0214,-0.0281,-0.0286,-0.0302,-0.0375,-0.0386,-0.0441,-0.0486,-0.0513,-0.0505,-0.0502,-0.0501,-0.0484,-0.0496,-0.0505,-0.0509,-0.0491,-0.0508,-0.0508,-0.0496,-0.0476,-0.0464,-0.0462,-0.0485,-0.0485,-0.0485,-0.0468,0,-0.0178,-0.0195,-0.0218,-0.0244,-0.027,-0.0349,-0.0387,-0.044,-0.047,-0.0502,-0.0513,-0.0506,-0.0498,-0.0477,-0.0482,-0.0509,-0.0489,-0.0495,-0.0494,-0.0494,-0.0481,-0.0461,-0.0412,-0.0392,-0.0467,-0.0467,-0.0467,0,-0.0129,-0.0158,-0.0149,-0.0205,-0.0211,-0.023,-0.0302,-0.0339,-0.0443,-0.0442,-0.0459,-0.0485,-0.052,-0.0484,-0.0505,-0.0507,-0.0479,-0.0481,-0.048,-0.0487,-0.0482,-0.0419,-0.0388,-0.0321,-0.0466,-0.0466,-0.0466,0,-0.0052,-0.0105,-0.0086,-0.0117,-0.0187,-0.019,-0.0231,-0.0319,-0.0358,-0.042,-0.0432,-0.0471,-0.0473,-0.0478,-0.0489,-0.0496,-0.0491,-0.0503,-0.0455,-0.0454,-0.0425,-0.0421,-0.0328,-0.0468,-0.0468,-0.0468,-0.0468,0,-0.0004,-0.0005,-0.0065,-0.0069,-0.0077,-0.0123,-0.0131,-0.0199,-0.0284,-0.0324,-0.0385,-0.0402,-0.0465,-0.0491,-0.0491,-0.0477,-0.0483,-0.0455,-0.045,-0.0409,-0.0404,-0.0357,-0.0344,-0.0467,-0.0467,-0.0468,-0.0468,0,0.008,0.0048,0.003,-0.0029,-0.0039,-0.0048,-0.0103,-0.0149,-0.0202,-0.0268,-0.0288,-0.0371,-0.0398,-0.045,-0.0461,-0.0464,-0.0421,-0.0427,-0.0377,-0.0366,-0.0304,-0.0292,-0.024,-0.0208,-0.0416,-0.0415,-0.0415,0,0.0117,0.0116,0.0064,0.0051,0.0031,0.0007,-0.003,-0.0103,-0.0149,-0.0237,-0.0268,-0.0328,-0.0364,-0.0388,-0.0415,-0.0428,-0.0357,-0.0347,-0.0358,-0.0289,-0.0272,-0.0268,-0.0245,-0.0295,-0.0294,-0.0293,-0.0292,0,0.0161,0.015,0.0148,0.0117,0.0091,0.004,-0.0011,-0.0044,-0.0128,-0.0155,-0.0205,-0.0253,-0.0322,-0.0332,-0.0349,-0.0342,-0.0305,-0.0327,-0.0263,-0.0179,-0.0161,-0.0131,-0.0316,-0.0283,-0.0284,-0.0284,-0.0285,-0.0285,0.0199,0.0199,0.0209,0.0178,0.0147,0.0083,0.0073,0.0005,-0.0022,-0.0095,-0.015,-0.0184,-0.022,-0.027,-0.0248,-0.0189,-0.0247,-0.0154,-0.0148,-0.0151,-0.0111,-0.0279,-0.0239,-0.024,-0.024,-0.0241,-0.0241,0,0.0223,0.025,0.0252,0.0244,0.0214,0.0162,0.0102,0.0086,0.0084,-0.0009,-0.0051,-0.0089,-0.0076,-0.0082,-0.0063,-0.0012,0.0004,0.0035,0.0073,0.0084,-0.0057,-0.0041,0.0053,0.0053,0.0053,0.0053,0.0053,0.0052,0.0256,0.0296,0.03,0.0309,0.0289,0.0258,0.0221,0.0193,0.0161,0.0126,0.0086,0.002,0.0096,0.017,0.0222,0.0221,0.0246,0.0243,0.0244,0.0175,0.0159,0.0143,0.0164,0.03,0.03,0.0411,0.0412,0.0413]},{"header":{"parameterUnit":"m.s-1","parameterCategory":2,"la1":30.2991,"la2":30.254,"lo1":-89.0895,"lo2":-89.0444,"dy":0.0017,"dx":0.0017,"nx":28,"ny":28,"refTime":"2023-07-22T21:00:00:Z","depth":"0","parameterNumber":3,"parameterNumberName":"V-component_of_CURRENTS"},"data":[0,0,0,0,0,0,0,0,0,0,0,0,0,0,0,0,0,0,0,0,0,0,0,0,0,0,0,0,0,0,0,0,0,0,0,0,0,0,0,0,0,0,0,0,0,0,0,0,0,0,0,0,0,0,0,0,0,0,-0.0791,-0.0791,0,-0.0839,-0.084,-0.0841,-0.0882,-0.0881,-0.0881,-0.0881,-0.0837,-0.0836,-0.0835,0,0,0,0,0,0,0,0,0,0,0,0,0,-0.067,-0.0673,-0.0791,-0.0791,-0.0791,-0.0839,-0.084,-0.0842,-0.0882,-0.0881,-0.0881,-0.0881,-0.0837,-0.0836,-0.0835,0,0,0,0,0,0,0,0,0,0,0,0,0,-0.0727,-0.0674,-0.0791,-0.0812,-0.0814,-0.0839,-0.0841,-0.0842,-0.0882,-0.0881,-0.0881,-0.0881,-0.0838,-0.0836,-0.0835,-0.0829,0,0,-0.083,-0.0829,0,0,0,0,0,0,0,0,-0.0724,-0.0732,-0.0809,-0.0811,-0.0813,-0.0849,-0.0781,-0.0831,-0.0882,-0.0863,-0.0881,-0.0881,-0.0828,-0.0828,-0.0847,-0.0827,-0.0825,-0.083,-0.0829,-0.0828,-0.0828,0,0,0,0,0,0,0,-0.072,-0.073,-0.0816,-0.0809,-0.0811,-0.0797,-0.0806,-0.0792,-0.0849,-0.0864,-0.0866,-0.0861,-0.083,-0.0849,-0.0846,-0.0825,-0.083,-0.0828,-0.0828,-0.0827,-0.0792,-0.0792,0,0,0,0,0,0,-0.0706,-0.0727,-0.0815,-0.0817,-0.076,-0.0799,-0.081,-0.0843,-0.0851,-0.0852,-0.0861,-0.0863,-0.0852,-0.0848,-0.0845,-0.083,-0.0828,-0.0827,-0.0826,-0.0792,-0.0792,-0.0792,0,0,0,0,0,0,-0.0704,-0.0715,-0.0813,-0.0765,-0.0776,-0.0802,-0.0838,-0.0843,-0.0848,-0.0849,-0.0849,-0.0857,-0.0851,-0.0847,-0.0837,-0.0829,-0.0826,-0.0825,-0.0792,-0.0792,-0.0792,-0.0805,0,0,0,0,0,0,-0.0701,-0.0715,-0.0726,-0.0766,-0.0778,-0.082,-0.0838,-0.0844,-0.0843,-0.0845,-0.0845,-0.0842,-0.0851,-0.084,-0.0836,-0.0826,-0.0823,-0.0792,-0.0792,-0.0792,-0.0805,-0.0806,-0.0807,0,0,0,0,0,-0.0697,-0.0732,-0.0728,-0.0737,-0.0798,-0.0819,-0.0825,-0.0845,-0.0843,-0.0848,-0.0855,-0.0842,-0.0837,-0.0839,-0.0834,-0.0824,-0.0792,-0.0792,-0.0792,-0.0805,-0.0806,-0.0807,0,0,0,0,0,0,-0.0689,-0.0739,-0.0736,-0.0784,-0.0787,-0.0824,-0.0835,-0.0832,-0.0845,-0.0848,-0.0844,-0.0842,-0.0831,-0.0823,-0.0826,-0.0814,-0.081,-0.0809,-0.0821,-0.0822,-0.0823,-0.0828,-0.0822,0,0,0,0,0,-0.0688,-0.072,-0.0748,-0.0773,-0.0786,-0.0799,-0.0806,-0.0817,-0.0832,-0.0838,-0.084,-0.0838,-0.083,-0.0823,-0.0822,-0.0811,-0.079,-0.08,-0.0801,-0.0802,-0.0803,-0.0752,-0.0748,-0.0792,-0.0792,-0.0792,0,0,-0.0685,-0.0713,-0.0729,-0.0769,-0.0784,-0.0797,-0.0806,-0.0824,-0.0831,-0.0828,-0.0846,-0.0839,-0.0828,-0.083,-0.0822,-0.082,-0.0784,-0.0802,-0.0803,-0.0803,-0.0751,-0.0747,-0.0743,-0.0792,-0.0792,-0.0792,0,0,-0.0693,-0.0728,-0.0755,-0.0767,-0.0783,-0.079,-0.0785,-0.0818,-0.0838,-0.085,-0.0845,-0.0828,-0.0836,-0.0822,-0.0814,-0.0809,-0.079,-0.0811,-0.0818,-0.0768,-0.0764,-0.076,-0.0748,-0.0743,-0.0811,-0.0811,-0.0811,0,-0.0673,-0.0733,-0.0756,-0.0781,-0.079,-0.078,-0.0799,-0.0813,-0.0833,-0.0837,-0.0859,-0.0849,-0.0831,-0.0805,-0.0817,-0.0808,-0.0797,-0.0815,-0.0768,-0.0764,-0.0759,-0.0748,-0.0742,-0.0812,-0.0812,-0.0812,-0.0812,0,-0.071,-0.0744,-0.0764,-0.0789,-0.0791,-0.0814,-0.0826,-0.0827,-0.084,-0.0847,-0.0849,-0.0851,-0.0828,-0.0828,-0.0828,-0.0785,-0.0795,-0.0774,-0.0764,-0.0755,-0.0745,-0.0738,-0.0813,-0.0813,-0.0812,-0.0812,0,0,-0.0704,-0.0776,-0.0783,-0.0796,-0.0811,-0.0818,-0.0819,-0.0821,-0.0813,-0.0841,-0.0837,-0.0836,-0.0822,-0.0811,-0.0797,-0.0777,-0.0738,-0.0773,-0.077,-0.0761,-0.0663,-0.0619,-0.0607,-0.0713,-0.0711,-0.071,-0.0675,0,-0.072,-0.0773,-0.0806,-0.0824,-0.0845,-0.0843,-0.0844,-0.0832,-0.0833,-0.0824,-0.0819,-0.0806,-0.0818,-0.0803,-0.0781,-0.0737,-0.0719,-0.0752,-0.0674,-0.0672,-0.0631,-0.0596,-0.0588,-0.0551,-0.0669,-0.0668,-0.0667,0,-0.0746,-0.0779,-0.0822,-0.0851,-0.0865,-0.0862,-0.0845,-0.0854,-0.0821,-0.0824,-0.0797,-0.0781,-0.0735,-0.0755,-0.0689,-0.0713,-0.069,-0.0679,-0.0676,-0.0622,-0.0614,-0.0575,-0.0534,-0.0451,-0.0656,-0.0657,-0.0658,0,-0.0718,-0.0786,-0.0822,-0.0837,-0.0864,-0.0871,-0.087,-0.0843,-0.0846,-0.08,-0.0787,-0.0736,-0.0715,-0.0669,-0.063,-0.0651,-0.0576,-0.0582,-0.0533,-0.0532,-0.0501,-0.0498,-0.0365,-0.0538,-0.0538,-0.0538,-0.0538,0,-0.0722,-0.075,-0.0817,-0.0829,-0.0856,-0.0873,-0.0872,-0.0861,-0.0836,-0.0824,-0.0782,-0.077,-0.0695,-0.0643,-0.0611,-0.0542,-0.054,-0.0526,-0.0504,-0.0508,-0.0506,-0.0413,-0.0364,-0.0537,-0.0537,-0.0537,-0.0537,0,-0.0684,-0.0738,-0.0778,-0.0829,-0.0841,-0.0858,-0.087,-0.0857,-0.0849,-0.0825,-0.0805,-0.0768,-0.0695,-0.0623,-0.0543,-0.0513,-0.0375,-0.043,-0.0456,-0.0437,-0.0304,-0.0257,-0.0124,-0.0001,-0.0361,-0.0359,-0.0358,0,-0.0673,-0.0691,-0.0762,-0.0783,-0.0811,-0.0835,-0.0834,-0.0843,-0.0847,-0.0838,-0.0839,-0.076,-0.0705,-0.0573,-0.0486,-0.0381,-0.0309,-0.0319,-0.0338,-0.0277,-0.0209,-0.0212,-0.0117,-0.0324,-0.0322,-0.0321,-0.032,0,-0.0639,-0.0672,-0.0711,-0.0749,-0.0773,-0.0797,-0.0821,-0.0825,-0.0845,-0.0838,-0.0845,-0.0794,-0.0676,-0.0562,-0.0406,-0.034,-0.021,-0.029,-0.0205,-0.0139,-0.0154,-0.0032,-0.0396,-0.0309,-0.031,-0.0311,-0.0312,-0.0312,-0.0616,-0.0639,-0.0685,-0.0725,-0.0751,-0.077,-0.078,-0.0807,-0.0822,-0.0823,-0.0835,-0.0777,-0.0619,-0.0406,-0.0319,-0.0123,-0.0125,-0.0087,-0.0032,-0.0041,0.0089,-0.026,-0.0152,-0.0152,-0.0152,-0.0152,-0.0152,0,-0.059,-0.0614,-0.0644,-0.0709,-0.072,-0.0741,-0.0778,-0.0779,-0.08,-0.0811,-0.0801,-0.0662,-0.0466,-0.0286,-0.004,0.0091,0.0141,0.0178,0.0174,0.0268,-0.0032,-0.0017,0.01,0.01,0.01,0.01,0.01,0.01,-0.0581,-0.0607,-0.0631,-0.0668,-0.0695,-0.0717,-0.0732,-0.0734,-0.0759,-0.0717,-0.0688,-0.0652,-0.0313,-0.0014,0.0281,0.0325,0.0495,0.0443,0.0585,0.0346,0.0324,0.0303,0.0329,0.0517,0.0518,0.0856,0.0859,0.0861]}],[{"header":{"parameterUnit":"m.s-1","parameterCategory":2,"la1":30.2991,"la2":30.254,"lo1":-89.0895,"lo2":-89.0444,"dy":0.0017,"dx":0.0017,"nx":28,"ny":28,"refTime":"2023-07-22T21:00:00:Z","depth":"2","parameterNumber":2,"parameterNumberName":"U-component_of_CURRENTS"},"data":[0,0,0,0,0,0,0,0,0,0,0,0,0,0,0,0,0,0,0,0,0,0,0,0,0,0,0,0,0,0,0,0,0,0,0,0,0,0,0,0,0,0,0,0,0,0,0,0,0,0,0,0,0,0,0,0,0,0,-0.2866,-0.2866,0,-0.2895,-0.2895,-0.2896,-0.2875,-0.2874,-0.2873,-0.2873,-0.2846,-0.2846,-0.2846,0,0,0,0,0,0,0,0,0,0,0,0,0,-0.2782,-0.2784,-0.2866,-0.2867,-0.2867,-0.2895,-0.2895,-0.2896,-0.2875,-0.2874,-0.2873,-0.2872,-0.2846,-0.2846,-0.2846,0,0,0,0,0,0,0,0,0,0,0,0,0,-0.2814,-0.2784,-0.2866,-0.2861,-0.2861,-0.2895,-0.2895,-0.2896,-0.2875,-0.2874,-0.2873,-0.2872,-0.2846,-0.2846,-0.2846,-0.2869,0,0,-0.2846,-0.2846,0,0,0,0,0,0,0,0,-0.2813,-0.2817,-0.2862,-0.2862,-0.2862,-0.2882,-0.2856,-0.2885,-0.2876,-0.2868,-0.2873,-0.2871,-0.2855,-0.2854,-0.286,-0.2868,-0.2867,-0.2846,-0.2846,-0.2846,-0.2846,0,0,0,0,0,0,0,-0.281,-0.2816,-0.2876,-0.2862,-0.2862,-0.2854,-0.2858,-0.2862,-0.2865,-0.2869,-0.2868,-0.2874,-0.2854,-0.2861,-0.2859,-0.2866,-0.2846,-0.2846,-0.2846,-0.2846,-0.2846,-0.2846,0,0,0,0,0,0,-0.2812,-0.2814,-0.2875,-0.2877,-0.2836,-0.2857,-0.2861,-0.2875,-0.2867,-0.2865,-0.2875,-0.2873,-0.2861,-0.2859,-0.2858,-0.283,-0.2846,-0.2846,-0.2846,-0.2846,-0.2846,-0.2846,0,0,0,0,0,0,-0.2811,-0.2818,-0.2874,-0.2847,-0.2853,-0.286,-0.2876,-0.2876,-0.2874,-0.2872,-0.2869,-0.2872,-0.286,-0.2858,-0.2858,-0.2831,-0.2846,-0.2846,-0.2846,-0.2846,-0.2846,-0.2809,0,0,0,0,0,0,-0.2808,-0.2817,-0.2822,-0.2847,-0.2855,-0.2891,-0.2878,-0.2878,-0.2881,-0.2879,-0.2869,-0.2866,-0.2859,-0.2858,-0.2858,-0.2831,-0.2846,-0.2846,-0.2846,-0.2846,-0.281,-0.2808,-0.2806,0,0,0,0,0,-0.2805,-0.2821,-0.2822,-0.2829,-0.2864,-0.2891,-0.2894,-0.2893,-0.2882,-0.2886,-0.2878,-0.2865,-0.2857,-0.2859,-0.2858,-0.2831,-0.2846,-0.2846,-0.2846,-0.2811,-0.2808,-0.2806,0,0,0,0,0,0,-0.2782,-0.2822,-0.2823,-0.2847,-0.2865,-0.2888,-0.2888,-0.2893,-0.2892,-0.2881,-0.2875,-0.2872,-0.2865,-0.2861,-0.2863,-0.2833,-0.2846,-0.2846,-0.282,-0.2817,-0.2815,-0.2804,-0.2846,0,0,0,0,0,-0.2782,-0.28,-0.2835,-0.2847,-0.2857,-0.2871,-0.2879,-0.2883,-0.289,-0.2888,-0.2884,-0.2874,-0.2869,-0.2853,-0.286,-0.2843,-0.2826,-0.2824,-0.2822,-0.2819,-0.2812,-0.2784,-0.2778,-0.2847,-0.2847,-0.2847,0,0,-0.2767,-0.2797,-0.2801,-0.2843,-0.2851,-0.2868,-0.2872,-0.2884,-0.289,-0.2885,-0.2881,-0.2878,-0.287,-0.2854,-0.2847,-0.284,-0.2787,-0.2819,-0.2817,-0.2811,-0.2783,-0.2776,-0.277,-0.2847,-0.2847,-0.2847,0,0,-0.2762,-0.2781,-0.2797,-0.2815,-0.2841,-0.2858,-0.2861,-0.2885,-0.2883,-0.2893,-0.2883,-0.2862,-0.2865,-0.2839,-0.2829,-0.282,-0.2792,-0.2817,-0.2773,-0.2746,-0.2739,-0.2734,-0.2682,-0.2672,-0.2795,-0.2795,-0.2795,0,-0.2743,-0.2774,-0.2802,-0.2824,-0.2833,-0.2852,-0.2865,-0.2875,-0.2892,-0.2883,-0.2887,-0.2863,-0.2855,-0.2812,-0.28,-0.281,-0.2785,-0.278,-0.274,-0.2734,-0.2729,-0.2678,-0.2667,-0.2793,-0.2794,-0.2794,-0.2794,0,-0.2753,-0.2772,-0.278,-0.2815,-0.2831,-0.2843,-0.2867,-0.2871,-0.2873,-0.2874,-0.2851,-0.2838,-0.2811,-0.2801,-0.2794,-0.274,-0.2731,-0.2755,-0.2742,-0.2719,-0.2667,-0.2656,-0.2791,-0.2791,-0.2792,-0.2792,0,0,-0.2712,-0.2778,-0.2772,-0.2792,-0.2826,-0.2844,-0.2847,-0.2857,-0.2843,-0.2845,-0.281,-0.2791,-0.2768,-0.2755,-0.2732,-0.2693,-0.2624,-0.2694,-0.2693,-0.2631,-0.2537,-0.2416,-0.2393,-0.2637,-0.2635,-0.2634,-0.2507,0,-0.2703,-0.2751,-0.2778,-0.2798,-0.2823,-0.2837,-0.284,-0.2844,-0.2839,-0.2812,-0.2778,-0.2743,-0.2755,-0.2714,-0.2685,-0.2648,-0.2598,-0.2654,-0.2578,-0.2575,-0.2461,-0.2378,-0.2189,-0.205,-0.2497,-0.2495,-0.2494,0,-0.2686,-0.2733,-0.2756,-0.2805,-0.2811,-0.2809,-0.2805,-0.2814,-0.2781,-0.2766,-0.2721,-0.27,-0.2627,-0.2647,-0.2565,-0.2598,-0.256,-0.2533,-0.2528,-0.2421,-0.2434,-0.215,-0.2014,-0.2476,-0.2478,-0.2479,-0.248,0,-0.2647,-0.2705,-0.2725,-0.2739,-0.2793,-0.2778,-0.2792,-0.2778,-0.2761,-0.2709,-0.2666,-0.2622,-0.2563,-0.2531,-0.2477,-0.2512,-0.2385,-0.2433,-0.2286,-0.2277,-0.2102,-0.2079,-0.2367,-0.2367,-0.2368,-0.2368,-0.2368,0,-0.2632,-0.264,-0.27,-0.271,-0.2706,-0.2751,-0.2725,-0.2718,-0.2683,-0.2623,-0.2621,-0.2548,-0.2533,-0.2464,-0.244,-0.2305,-0.2354,-0.2243,-0.2224,-0.2081,-0.206,-0.2436,-0.2446,-0.2363,-0.2364,-0.2365,-0.2366,0,-0.2571,-0.2615,-0.2639,-0.2688,-0.2682,-0.2674,-0.267,-0.2638,-0.2627,-0.2536,-0.25,-0.2462,-0.2361,-0.2333,-0.2256,-0.2221,-0.2132,-0.2079,-0.1895,-0.1855,-0.2053,-0.2063,-0.1887,-0.1882,-0.1877,-0.1873,-0.187,0,-0.2548,-0.2555,-0.2593,-0.2549,-0.2549,-0.2552,-0.252,-0.2571,-0.2536,-0.2468,-0.2398,-0.2296,-0.2177,-0.2027,-0.1938,-0.1821,-0.1967,-0.1605,-0.1638,-0.1998,-0.1999,-0.2016,-0.2032,-0.1388,-0.1381,-0.1376,-0.1371,0,-0.2492,-0.2489,-0.2508,-0.2444,-0.2402,-0.2384,-0.2359,-0.2343,-0.2366,-0.2288,-0.2169,-0.2065,-0.1898,-0.1667,-0.1527,-0.1472,-0.161,-0.1483,-0.1877,-0.1548,-0.1519,-0.1524,-0.1557,-0.132,-0.1325,-0.1329,-0.1332,-0.1334,-0.2406,-0.24,-0.2392,-0.2314,-0.2272,-0.2193,-0.2141,-0.2119,-0.2066,-0.193,-0.1953,-0.17,-0.1554,-0.121,-0.1142,-0.1111,-0.1235,-0.1187,-0.1209,-0.1235,-0.1208,-0.1174,-0.0903,-0.0905,-0.0908,-0.091,-0.0911,0,-0.2289,-0.2274,-0.2225,-0.2168,-0.2079,-0.2073,-0.1998,-0.1934,-0.1821,-0.1687,-0.1569,-0.1183,-0.096,-0.0871,-0.0709,-0.0684,-0.0746,-0.0686,-0.0749,-0.0794,-0.0837,-0.0797,-0.0378,-0.0378,-0.0377,-0.0377,0,0,-0.2214,-0.2157,-0.2158,-0.2,-0.1915,-0.1773,-0.1694,-0.1597,-0.1485,-0.123,-0.1007,-0.0953,-0.079,-0.0552,-0.0509,-0.043,-0.0645,-0.0423,-0.0832,-0.095,-0.0993,-0.108,-0.1061,0,0,0,0,0]},{"header":{"parameterUnit":"m.s-1","parameterCategory":2,"la1":30.2991,"la2":30.254,"lo1":-89.0895,"lo2":-89.0444,"dy":0.0017,"dx":0.0017,"nx":28,"ny":28,"refTime":"2023-07-22T21:00:00:Z","depth":"2","parameterNumber":3,"parameterNumberName":"V-component_of_CURRENTS"},"data":[0,0,0,0,0,0,0,0,0,0,0,0,0,0,0,0,0,0,0,0,0,0,0,0,0,0,0,0,0,0,0,0,0,0,0,0,0,0,0,0,0,0,0,0,0,0,0,0,0,0,0,0,0,0,0,0,0,0,0.0349,0.035,0,0.0461,0.0462,0.0464,0.0479,0.0478,0.0477,0.0476,0.0454,0.0454,0.0455,0,0,0,0,0,0,0,0,0,0,0,0,0,0.024,0.0242,0.0349,0.035,0.0352,0.0461,0.0462,0.0464,0.0479,0.0478,0.0476,0.0475,0.0454,0.0454,0.0455,0,0,0,0,0,0,0,0,0,0,0,0,0,0.0313,0.0242,0.0348,0.0373,0.0376,0.0461,0.0463,0.0464,0.0479,0.0478,0.0476,0.0475,0.0454,0.0454,0.0455,0.0489,0,0,0.0456,0.0457,0,0,0,0,0,0,0,0,0.0309,0.0317,0.0368,0.0371,0.0375,0.0455,0.0417,0.0466,0.0479,0.0439,0.0476,0.0474,0.0443,0.0445,0.047,0.0488,0.0487,0.0456,0.0457,0.0457,0.0457,0,0,0,0,0,0,0,0.0303,0.0312,0.0393,0.0369,0.0374,0.041,0.0418,0.0427,0.0445,0.0443,0.0444,0.0458,0.0444,0.047,0.0469,0.0486,0.0456,0.0457,0.0457,0.0457,0.0489,0.0489,0,0,0,0,0,0,0.0288,0.0307,0.0389,0.0396,0.0338,0.0413,0.0421,0.043,0.0448,0.0451,0.0459,0.0458,0.047,0.0469,0.0468,0.0465,0.0457,0.0457,0.0458,0.0488,0.0489,0.0489,0,0,0,0,0,0,0.0285,0.0294,0.0385,0.0355,0.0369,0.0416,0.0426,0.0433,0.0437,0.0463,0.0462,0.0452,0.0468,0.0468,0.047,0.0465,0.0458,0.0458,0.0488,0.0488,0.0489,0.0485,0,0,0,0,0,0,0.0281,0.0292,0.028,0.0354,0.037,0.0421,0.0428,0.0437,0.0449,0.0448,0.0457,0.0455,0.0467,0.0469,0.0471,0.0466,0.0459,0.0487,0.0488,0.0489,0.0485,0.0486,0.0487,0,0,0,0,0,0.0277,0.0271,0.0279,0.0289,0.0357,0.0422,0.0433,0.0462,0.045,0.0457,0.0464,0.0453,0.0476,0.0471,0.0472,0.0467,0.0486,0.0488,0.0489,0.0484,0.0486,0.0487,0,0,0,0,0,0,0.0213,0.0274,0.0284,0.0294,0.0347,0.0424,0.0426,0.045,0.0466,0.0446,0.0464,0.0464,0.0468,0.0469,0.0463,0.048,0.0478,0.0479,0.0474,0.0475,0.0476,0.0468,0.0459,0,0,0,0,0,0.0196,0.0204,0.0276,0.028,0.03,0.0358,0.038,0.0404,0.0437,0.0441,0.0455,0.0462,0.0481,0.0476,0.0494,0.0499,0.0517,0.0496,0.0497,0.0498,0.0493,0.0538,0.0543,0.0493,0.0493,0.0493,0,0,0.017,0.0205,0.0207,0.0267,0.0302,0.0339,0.0366,0.0393,0.0423,0.0434,0.0453,0.0466,0.0486,0.0502,0.0501,0.0494,0.0521,0.0499,0.05,0.0495,0.054,0.0545,0.0549,0.0494,0.0494,0.0493,0,0,0.0136,0.0154,0.0155,0.0198,0.0251,0.0301,0.0302,0.037,0.0392,0.0423,0.0442,0.0455,0.0474,0.0502,0.0514,0.0529,0.0531,0.052,0.051,0.0554,0.0558,0.0562,0.0589,0.0596,0.0513,0.0513,0.0513,0,0.0096,0.0116,0.0166,0.0187,0.0218,0.0278,0.0299,0.0346,0.0406,0.043,0.0417,0.0475,0.0481,0.0522,0.0522,0.053,0.0546,0.0503,0.0555,0.056,0.0564,0.059,0.0598,0.0513,0.0513,0.0513,0.0513,0,0.0083,0.0092,0.0097,0.0147,0.0191,0.0213,0.0295,0.033,0.0356,0.0407,0.0446,0.0474,0.0501,0.051,0.0514,0.0548,0.0547,0.0558,0.0551,0.0569,0.0595,0.0603,0.0513,0.0513,0.0513,0.0513,0,0,-0.0002,0.0071,0.0066,0.0087,0.0167,0.0206,0.026,0.034,0.0372,0.0419,0.0459,0.0496,0.0502,0.0517,0.0531,0.0562,0.06,0.0557,0.0559,0.058,0.0682,0.0679,0.0687,0.0617,0.0618,0.0619,0.0687,0,-0.0036,-0.0011,0.0045,0.0074,0.0098,0.018,0.0235,0.0312,0.0371,0.0427,0.0474,0.0501,0.0511,0.0501,0.0543,0.0592,0.062,0.058,0.0664,0.0666,0.0659,0.0696,0.0551,0.06,0.0695,0.0696,0.0697,0,-0.0069,-0.0045,-0.0029,0.0049,0.0066,0.0096,0.0191,0.0246,0.0352,0.0394,0.0443,0.0478,0.053,0.0522,0.0626,0.0596,0.0627,0.0666,0.067,0.0672,0.0678,0.0599,0.0611,0.071,0.0709,0.0708,0.0707,0,-0.0143,-0.0093,-0.0085,-0.0061,0.0035,0.0055,0.0106,0.0216,0.0266,0.0351,0.0375,0.0468,0.0481,0.0564,0.0635,0.0625,0.0749,0.0752,0.0785,0.0784,0.0681,0.0669,0.0815,0.0815,0.0815,0.0815,0.0814,0,-0.019,-0.0183,-0.013,-0.0125,-0.0106,-0.002,0.0021,0.0092,0.0182,0.0231,0.0322,0.0364,0.0486,0.0572,0.0645,0.0745,0.0762,0.079,0.0809,0.0675,0.0663,0.0771,0.0765,0.0817,0.0817,0.0816,0.0816,0,-0.026,-0.023,-0.0216,-0.0156,-0.0144,-0.0136,-0.005,-0.001,0.0073,0.0131,0.0141,0.0282,0.0394,0.0528,0.0665,0.0739,0.0845,0.0866,0.0695,0.0693,0.0846,0.0839,0.092,0.0921,0.0922,0.0922,0.0922,0,-0.0284,-0.0291,-0.0265,-0.027,-0.0253,-0.0224,-0.0194,-0.009,-0.004,0.0083,0.0102,0.0214,0.0338,0.0562,0.0692,0.0847,0.0844,0.0771,0.0735,0.085,0.086,0.0852,0.0845,0.0591,0.0588,0.0586,0.0585,0,-0.0325,-0.0331,-0.0321,-0.0336,-0.0334,-0.0305,-0.0261,-0.0235,-0.0113,-0.0035,0.0081,0.0184,0.0378,0.0498,0.0675,0.0741,0.0747,0.0738,0.091,0.0593,0.0547,0.0554,0.0556,0.0567,0.0569,0.057,0.0571,0.0572,-0.0356,-0.037,-0.0369,-0.0378,-0.0378,-0.0369,-0.0339,-0.0272,-0.0183,-0.0044,0.0063,0.023,0.0217,0.0488,0.0566,0.0663,0.0718,0.0657,0.066,0.0665,0.0621,0.0579,0.0597,0.0599,0.06,0.0602,0.0603,0,-0.0368,-0.0381,-0.04,-0.0404,-0.0406,-0.0395,-0.0354,-0.0283,-0.0177,-0.0067,0.0096,0.0132,0.0246,0.0314,0.0453,0.0529,0.0519,0.0487,0.0405,0.0419,0.0432,0.0376,0.0287,0.0287,0.0288,0.0288,0,0,-0.0372,-0.0392,-0.0402,-0.0413,-0.0416,-0.0385,-0.0359,-0.0251,-0.015,-0.0033,0.0065,0.0186,0.0219,0.0187,0.0201,0.0276,0.0352,0.0277,0.0506,0.0412,0.0426,0.0486,0.0409,0,0,0,0,0]}],[{"header":{"parameterUnit":"m.s-1","parameterCategory":2,"la1":30.2991,"la2":30.254,"lo1":-89.0895,"lo2":-89.0444,"dy":0.0017,"dx":0.0017,"nx":28,"ny":28,"refTime":"2023-07-22T21:00:00:Z","depth":"4","parameterNumber":2,"parameterNumberName":"U-component_of_CURRENTS"},"data":[0,0,0,0,0,0,0,0,0,0,0,0,0,0,0,0,0,0,0,0,0,0,0,0,0,0,0,0,0,0,0,0,0,0,0,0,0,0,0,0,0,0,0,0,0,0,0,0,0,0,0,0,0,0,0,0,0,0,-0.0956,-0.0955,0,-0.1009,-0.1011,-0.1012,-0.1025,-0.1024,-0.1023,-0.1022,-0.1135,-0.1139,-0.1143,0,0,0,0,0,0,0,0,0,0,0,0,0,-0.0941,-0.0942,-0.0956,-0.0955,-0.0955,-0.1009,-0.1011,-0.1013,-0.1026,-0.1024,-0.1023,-0.1021,-0.1133,-0.1138,-0.1143,0,0,0,0,0,0,0,0,0,0,0,0,0,-0.0976,-0.0942,-0.0956,-0.0961,-0.0961,-0.1009,-0.1011,-0.1013,-0.1026,-0.1024,-0.1022,-0.102,-0.1132,-0.1138,-0.1144,-0.122,0,0,-0.1163,-0.1166,0,0,0,0,0,0,0,0,-0.0974,-0.0978,-0.096,-0.096,-0.0961,-0.1,-0.1047,-0.1082,-0.1026,-0.1012,-0.1022,-0.1019,-0.109,-0.11,-0.1127,-0.1226,-0.123,-0.1164,-0.1167,-0.117,-0.1172,0,0,0,0,0,0,0,-0.0971,-0.0976,-0.0987,-0.096,-0.096,-0.0986,-0.099,-0.1054,-0.107,-0.1013,-0.1012,-0.1003,-0.1092,-0.1121,-0.113,-0.1232,-0.1163,-0.1169,-0.1173,-0.1175,-0.1232,-0.123,0,0,0,0,0,0,-0.0943,-0.0973,-0.0985,-0.0987,-0.0952,-0.0987,-0.0991,-0.0997,-0.1068,-0.1073,-0.1004,-0.1003,-0.1111,-0.1123,-0.1134,-0.1256,-0.117,-0.1176,-0.118,-0.1235,-0.1232,-0.123,0,0,0,0,0,0,-0.0943,-0.0945,-0.0983,-0.0973,-0.0978,-0.0988,-0.0996,-0.0999,-0.1054,-0.1058,-0.1067,-0.1055,-0.111,-0.1125,-0.1191,-0.1259,-0.1179,-0.1184,-0.1237,-0.1234,-0.1231,-0.1482,0,0,0,0,0,0,-0.0943,-0.0945,-0.0965,-0.0971,-0.0977,-0.1004,-0.0997,-0.1001,-0.1044,-0.1044,-0.1105,-0.1112,-0.111,-0.1181,-0.1197,-0.1266,-0.1189,-0.124,-0.1236,-0.1232,-0.1477,-0.1488,-0.1497,0,0,0,0,0,-0.0943,-0.0955,-0.0966,-0.0968,-0.0996,-0.1003,-0.1011,-0.1017,-0.1049,-0.1066,-0.1106,-0.1111,-0.1161,-0.1188,-0.1206,-0.1279,-0.1242,-0.1237,-0.1232,-0.1472,-0.1486,-0.1497,0,0,0,0,0,0,-0.0954,-0.0957,-0.0969,-0.0982,-0.0991,-0.1001,-0.1024,-0.1049,-0.1103,-0.1116,-0.1143,-0.1152,-0.1228,-0.1185,-0.1213,-0.1252,-0.118,-0.1178,-0.1355,-0.1368,-0.1378,-0.1357,-0.1195,0,0,0,0,0,-0.0967,-0.0974,-0.0984,-0.0991,-0.101,-0.1039,-0.1057,-0.1061,-0.1092,-0.1117,-0.1155,-0.117,-0.1218,-0.1241,-0.1254,-0.1322,-0.1298,-0.1342,-0.1352,-0.1363,-0.134,-0.1445,-0.1469,-0.1213,-0.1213,-0.1213,0,0,-0.0973,-0.0969,-0.0978,-0.0994,-0.1017,-0.1039,-0.1049,-0.1073,-0.1094,-0.1124,-0.1189,-0.124,-0.124,-0.1303,-0.1326,-0.1287,-0.1402,-0.1356,-0.1368,-0.1338,-0.1444,-0.147,-0.1494,-0.121,-0.121,-0.1211,0,0,-0.0961,-0.0995,-0.1001,-0.1024,-0.1043,-0.1054,-0.1072,-0.1109,-0.1135,-0.12,-0.1229,-0.1307,-0.1355,-0.1382,-0.1403,-0.1463,-0.1468,-0.1452,-0.1512,-0.1619,-0.1645,-0.1667,-0.1624,-0.1641,-0.1448,-0.1449,-0.1449,0,-0.0977,-0.0979,-0.1003,-0.1022,-0.1037,-0.107,-0.109,-0.1128,-0.1173,-0.1212,-0.1216,-0.1346,-0.1383,-0.1487,-0.1509,-0.1505,-0.1519,-0.1508,-0.165,-0.1671,-0.169,-0.1641,-0.1657,-0.146,-0.1459,-0.1458,-0.1457,0,-0.0963,-0.0992,-0.1003,-0.1034,-0.1057,-0.1077,-0.1116,-0.1144,-0.1195,-0.125,-0.1366,-0.1434,-0.1508,-0.1538,-0.1572,-0.1713,-0.1662,-0.1687,-0.1662,-0.1734,-0.1672,-0.1685,-0.1477,-0.1473,-0.1469,-0.1466,0,0,-0.0944,-0.0986,-0.0998,-0.1012,-0.1069,-0.1072,-0.1116,-0.1168,-0.1211,-0.1306,-0.1382,-0.1531,-0.1622,-0.1639,-0.1709,-0.1799,-0.197,-0.1821,-0.1822,-0.1849,-0.2134,-0.1802,-0.1781,-0.209,-0.2094,-0.2097,-0.2026,0,-0.0936,-0.0949,-0.0981,-0.1009,-0.103,-0.1073,-0.1116,-0.1173,-0.1233,-0.1311,-0.1441,-0.1575,-0.1648,-0.1746,-0.1859,-0.1967,-0.2019,-0.1979,-0.199,-0.1986,-0.1749,-0.1791,-0.2111,-0.2034,-0.2037,-0.2039,-0.204,0,-0.0925,-0.0927,-0.0952,-0.0993,-0.1014,-0.104,-0.1087,-0.114,-0.1265,-0.1322,-0.1478,-0.1612,-0.1809,-0.184,-0.2056,-0.2056,-0.21,-0.2139,-0.2139,-0.1745,-0.1678,-0.1942,-0.2061,-0.2059,-0.2058,-0.2056,-0.2055,0,-0.0877,-0.0914,-0.0918,-0.094,-0.0998,-0.1014,-0.1061,-0.1162,-0.1206,-0.1378,-0.1442,-0.1682,-0.1806,-0.1971,-0.206,-0.214,-0.218,-0.2297,-0.1987,-0.1959,-0.2182,-0.2159,-0.2387,-0.2387,-0.2387,-0.2387,-0.2388,0,-0.0854,-0.0867,-0.0895,-0.091,-0.0914,-0.0997,-0.1039,-0.1095,-0.1206,-0.1275,-0.1503,-0.1516,-0.1873,-0.1939,-0.2038,-0.1978,-0.2173,-0.1964,-0.1938,-0.2267,-0.2256,-0.2187,-0.2165,-0.2385,-0.2385,-0.2386,-0.2386,0,-0.0814,-0.0843,-0.0851,-0.0895,-0.0898,-0.0923,-0.0995,-0.1027,-0.1162,-0.1233,-0.1326,-0.1468,-0.1544,-0.1708,-0.1875,-0.1888,-0.1897,-0.179,-0.1981,-0.197,-0.162,-0.1611,-0.1559,-0.1547,-0.1537,-0.1528,-0.1521,0,-0.0795,-0.0793,-0.0817,-0.0803,-0.0822,-0.0855,-0.0873,-0.0987,-0.1005,-0.1126,-0.1123,-0.1232,-0.1317,-0.1235,-0.1404,-0.1483,-0.1478,-0.1502,-0.1723,-0.1565,-0.1547,-0.1553,-0.1557,-0.1505,-0.1503,-0.15,-0.1497,0,-0.0747,-0.0768,-0.0767,-0.0739,-0.0739,-0.0721,-0.075,-0.0735,-0.0876,-0.1003,-0.0947,-0.1001,-0.0955,-0.1038,-0.1035,-0.1103,-0.1556,-0.14,-0.1428,-0.1637,-0.15,-0.1493,-0.1509,-0.1462,-0.1467,-0.1471,-0.1473,0,-0.0713,-0.0687,-0.0689,-0.0659,-0.0637,-0.0577,-0.0609,-0.0598,-0.0634,-0.08,-0.0703,-0.0771,-0.0865,-0.0809,-0.0786,-0.0835,-0.0939,-0.1075,-0.1123,-0.1163,-0.1071,-0.084,-0.0556,0,0,0,0,0,-0.0661,-0.0617,-0.0592,-0.054,-0.0519,-0.0501,-0.0508,-0.055,-0.0653,-0.06,-0.068,-0.0628,-0.0626,-0.0569,-0.0561,-0.0614,-0.0934,-0.0603,-0.1115,-0.1269,-0.1309,-0.1239,0,0,0,0,0,0,-0.0615,-0.0587,-0.0568,-0.0453,-0.0387,-0.0346,-0.0341,-0.0415,-0.0366,-0.0489,-0.0438,-0.0596,-0.0533,-0.0624,-0.0543,-0.0554,-0.0871,-0.0644,-0.0643,-0.1246,-0.1282,-0.1315,-0.1257,0,0,0,0,0]},{"header":{"parameterUnit":"m.s-1","parameterCategory":2,"la1":30.2991,"la2":30.254,"lo1":-89.0895,"lo2":-89.0444,"dy":0.0017,"dx":0.0017,"nx":28,"ny":28,"refTime":"2023-07-22T21:00:00:Z","depth":"4","parameterNumber":3,"parameterNumberName":"V-component_of_CURRENTS"},"data":[0,0,0,0,0,0,0,0,0,0,0,0,0,0,0,0,0,0,0,0,0,0,0,0,0,0,0,0,0,0,0,0,0,0,0,0,0,0,0,0,0,0,0,0,0,0,0,0,0,0,0,0,0,0,0,0,0,0,-0.0253,-0.0253,0,-0.0243,-0.0243,-0.0243,-0.0237,-0.0237,-0.0237,-0.0237,-0.0209,-0.0209,-0.0208,0,0,0,0,0,0,0,0,0,0,0,0,0,-0.0237,-0.0237,-0.0253,-0.0253,-0.0253,-0.0243,-0.0243,-0.0243,-0.0237,-0.0237,-0.0237,-0.0237,-0.021,-0.0209,-0.0208,0,0,0,0,0,0,0,0,0,0,0,0,0,-0.0238,-0.0238,-0.0253,-0.0248,-0.0248,-0.0243,-0.0243,-0.0243,-0.0237,-0.0237,-0.0237,-0.0237,-0.021,-0.0209,-0.0208,-0.0204,0,0,-0.0205,-0.0204,0,0,0,0,0,0,0,0,-0.0238,-0.0239,-0.0249,-0.0249,-0.0248,-0.0241,-0.0227,-0.0229,-0.0237,-0.0242,-0.0237,-0.0237,-0.0218,-0.0216,-0.0216,-0.0203,-0.0202,-0.0205,-0.0204,-0.0204,-0.0203,0,0,0,0,0,0,0,-0.0238,-0.0239,-0.025,-0.0249,-0.0248,-0.0236,-0.0236,-0.0227,-0.0231,-0.0242,-0.0241,-0.0239,-0.0217,-0.0217,-0.0215,-0.0201,-0.0205,-0.0204,-0.0203,-0.0203,-0.0272,-0.0274,0,0,0,0,0,0,-0.024,-0.0239,-0.025,-0.025,-0.0242,-0.0237,-0.0237,-0.0244,-0.0231,-0.0229,-0.0239,-0.0239,-0.0219,-0.0216,-0.0214,-0.0242,-0.0204,-0.0203,-0.0202,-0.0269,-0.0272,-0.0275,0,0,0,0,0,0,-0.0239,-0.0241,-0.0251,-0.0243,-0.0243,-0.0237,-0.0245,-0.0244,-0.0246,-0.0229,-0.0227,-0.0242,-0.0218,-0.0215,-0.0217,-0.024,-0.0202,-0.0201,-0.0266,-0.027,-0.0273,-0.0277,0,0,0,0,0,0,-0.0239,-0.0241,-0.025,-0.0243,-0.0244,-0.0255,-0.0245,-0.0244,-0.0244,-0.0243,-0.0231,-0.0228,-0.0218,-0.0218,-0.0216,-0.0237,-0.0201,-0.0263,-0.0268,-0.0272,-0.0273,-0.028,-0.0285,0,0,0,0,0,-0.0239,-0.0249,-0.0251,-0.0252,-0.0256,-0.0256,-0.0255,-0.025,-0.0244,-0.025,-0.0244,-0.0229,-0.0247,-0.0218,-0.0215,-0.0237,-0.0261,-0.0267,-0.0272,-0.0271,-0.0279,-0.0285,0,0,0,0,0,0,-0.025,-0.0249,-0.0251,-0.0263,-0.0263,-0.0255,-0.0255,-0.0253,-0.0253,-0.026,-0.0237,-0.0234,-0.0248,-0.0252,-0.0221,-0.028,-0.0261,-0.0266,-0.0262,-0.0269,-0.0275,-0.029,-0.02,0,0,0,0,0,-0.0256,-0.0266,-0.0262,-0.0275,-0.027,-0.0264,-0.0263,-0.0271,-0.0267,-0.0267,-0.0254,-0.0262,-0.0269,-0.0273,-0.0279,-0.0296,-0.0277,-0.0321,-0.0327,-0.0332,-0.0348,-0.03,-0.0301,-0.0293,-0.0293,-0.0293,0,0,-0.0268,-0.0267,-0.0275,-0.0278,-0.0273,-0.0288,-0.0263,-0.0276,-0.0306,-0.0264,-0.0287,-0.027,-0.0278,-0.03,-0.031,-0.0303,-0.0332,-0.0339,-0.0342,-0.0356,-0.0306,-0.0306,-0.0306,-0.0296,-0.0296,-0.0295,0,0,-0.0287,-0.0288,-0.0298,-0.0303,-0.0307,-0.0311,-0.0315,-0.0313,-0.0326,-0.0346,-0.033,-0.0337,-0.0337,-0.0354,-0.0362,-0.0414,-0.0358,-0.0411,-0.0451,-0.0404,-0.0403,-0.0401,-0.0395,-0.0393,-0.042,-0.042,-0.042,0,-0.0298,-0.0318,-0.0303,-0.0314,-0.033,-0.0323,-0.0351,-0.0364,-0.0371,-0.0393,-0.0365,-0.0384,-0.0379,-0.0418,-0.0429,-0.0426,-0.0382,-0.041,-0.0405,-0.0403,-0.0402,-0.0395,-0.0393,-0.0421,-0.0421,-0.042,-0.042,0,-0.0321,-0.0345,-0.0348,-0.0369,-0.0385,-0.0408,-0.0427,-0.0451,-0.0459,-0.0475,-0.0503,-0.0482,-0.0498,-0.0495,-0.0467,-0.0472,-0.0439,-0.0402,-0.037,-0.0402,-0.0395,-0.0392,-0.0422,-0.0422,-0.0421,-0.0421,0,0,-0.0326,-0.0359,-0.0364,-0.0394,-0.0424,-0.0443,-0.0499,-0.0549,-0.06,-0.0591,-0.0639,-0.0632,-0.0602,-0.0612,-0.0574,-0.053,-0.0479,-0.0448,-0.0445,-0.0415,-0.0371,-0.0367,-0.0363,-0.0394,-0.0393,-0.0392,-0.0375,0,-0.035,-0.0392,-0.0409,-0.0476,-0.0501,-0.0533,-0.0588,-0.0642,-0.0674,-0.0717,-0.0707,-0.0726,-0.0654,-0.0643,-0.0589,-0.0499,-0.0468,-0.0489,-0.0371,-0.037,-0.0337,-0.0359,-0.039,-0.0372,-0.0372,-0.0371,-0.0371,0,-0.0365,-0.0398,-0.0459,-0.0545,-0.0559,-0.061,-0.0709,-0.0759,-0.0827,-0.085,-0.0859,-0.0828,-0.0795,-0.0715,-0.0586,-0.0576,-0.0485,-0.0412,-0.0408,-0.0402,-0.036,-0.0335,-0.0365,-0.0366,-0.0366,-0.0367,-0.0367,0,-0.0372,-0.044,-0.0496,-0.052,-0.0606,-0.0663,-0.072,-0.0805,-0.0854,-0.0925,-0.0946,-0.0912,-0.0885,-0.0748,-0.0612,-0.0563,-0.0467,-0.0394,-0.0327,-0.0327,-0.033,-0.0331,-0.0317,-0.0317,-0.0317,-0.0317,-0.0317,0,-0.0389,-0.0441,-0.051,-0.0543,-0.0641,-0.0692,-0.08,-0.0866,-0.0938,-0.0988,-0.0995,-0.0976,-0.0869,-0.0798,-0.0652,-0.0501,-0.0504,-0.0349,-0.0318,-0.0339,-0.0342,-0.0328,-0.033,-0.0316,-0.0316,-0.0316,-0.0316,0,-0.0392,-0.043,-0.0503,-0.0602,-0.0646,-0.0716,-0.0834,-0.0895,-0.0968,-0.1027,-0.1035,-0.1016,-0.0895,-0.083,-0.0654,-0.0567,-0.0427,-0.0385,-0.0477,-0.0449,-0.0305,-0.0308,-0.0274,-0.0274,-0.0273,-0.0273,-0.0273,0,-0.0399,-0.043,-0.0538,-0.0588,-0.0643,-0.0746,-0.0813,-0.0908,-0.0935,-0.1005,-0.0992,-0.0959,-0.0923,-0.0712,-0.0617,-0.0455,-0.0408,-0.0397,-0.0287,-0.0326,-0.0298,-0.0302,-0.0305,-0.0272,-0.0272,-0.0272,-0.0272,0,-0.0414,-0.0444,-0.05,-0.059,-0.067,-0.0756,-0.0833,-0.0844,-0.0923,-0.0993,-0.0926,-0.0869,-0.0783,-0.0636,-0.0596,-0.0439,-0.0428,-0.0391,-0.0387,-0.0284,-0.0323,-0.0297,-0.03,-0.0271,-0.0271,-0.0271,-0.0271,0,-0.0419,-0.0453,-0.0507,-0.0587,-0.0673,-0.0723,-0.0781,-0.0784,-0.0818,-0.0869,-0.0823,-0.078,-0.0772,-0.0625,-0.0528,-0.0458,-0.0366,-0.0318,-0.0317,-0.0318,-0.0332,-0.0389,-0.0338,0,0,0,0,0,-0.0419,-0.0443,-0.0506,-0.058,-0.0648,-0.0701,-0.0766,-0.0798,-0.0848,-0.0787,-0.0811,-0.0715,-0.0606,-0.0537,-0.0444,-0.048,-0.0361,-0.037,-0.0307,-0.0264,-0.0266,-0.0274,0,0,0,0,0,0,-0.0421,-0.0466,-0.0488,-0.0536,-0.058,-0.0654,-0.0693,-0.0738,-0.0671,-0.0718,-0.0622,-0.0679,-0.053,-0.0648,-0.0433,-0.0419,-0.0362,-0.034,-0.0338,-0.0263,-0.0265,-0.0266,-0.0275,0,0,0,0,0]}]]